Погода в Лусене

Филиппины     13°55′02″N   121°37′34″E
темп.,
°C
ветер,
м/с
пор.,
м/с
влажн.,
%
обл.,
%
осадки,
мм/ч
давл.,
гПа
погр.,
м
8 марта, пн
пн823:00+23ссв498697 0.2 1015688
02:00+23ссв498687 0.4 1013610
05:00+23ссв489049 0.6 1014566
08:00+24ссв598364 1.3 1015744
11:00+27ссв6107471 0.8 10161025
14:00+27св6107069 1.3 10131099
17:00+25св5108045 0.6 1013925
20:00+24св5108637 0.9 1014797
9 марта, вт
вт923:00+24св49888 0.8 1015671
02:00+23св499043 2.1 1013573
05:00+23ссв5118893 2.4 1014727
08:00+25св6108374 5.0 1015988
11:00+28св7106521 0.9 10151241
14:00+28св6106610 1.1 10121209
17:00+26св610764 0.3 1012998
20:00+24св410853 0.5 1015779
10 марта, ср
ср1023:00+23св410873 0.3 1016652
02:00+23св4108618 0.8 1014705
05:00+23св410870 0.3 1014767
08:00+24св5118944 1.7 10151010
11:00+27св7117172 0.8 10151237
14:00+27св7117373 1.9 10121193
17:00+25св6117648 0.5 10131119
20:00+24св5108026 0.8 1015959
11 марта, чт
чт1123:00+24св6118095 0.2 1016982
02:00+24св5107952 0.4 1014987
05:00+24св6118391 0.4 1014982
08:00+25св6108096 1.1 10161011
11:00+27св6117185 0.9 10151218
14:00+28св7116976 1.6 10121175
17:00+25св6118024 0.6 10121028
20:00+24св5118952 1.2 1014872
12 марта, пт
пт1223:00+23св51189100 0.9 1015846
02:00+23св51188100 1.9 1013875
05:00+23св5118890 0.6 1013906
08:00+25св6118387 1.6 1015995
11:00+26св7117899 1.4 10141102
14:00+27св7117395 3.0 10111110
17:00+25св61182100 1.3 1011941
20:00+24св51188100 2.8 1013786